Location: Zagreb
(45.8000°N, 16.0000°E)
Time: 14:56:10
(UTC+02:00)

Transit 2A - Pass Details

Date: 14 August 2022
Orbit: 601 x 956 km, 66.7° (Epoch: 25 September)

Event Time Altitude Azimuth Distance (km) Brightness Sun altitude
Rises 12:19:19 0° 221° (SW) 3,138 9.4 57.3°
Reaches altitude 10° 12:21:48 10° 225° (SW) 2,165 8.7 57.4°
Maximum altitude 12:26:37 61° 305° (NW) 749 6.6 57.7°
Drops below altitude 10° 12:31:05 10° 27° (NNE) 2,010 8.1 57.9°
Sets 12:33:19 0° 31° (NNE) 2,893 8.8 58.0°
